This is the latest recevied weather packets stored in our database for station/object YD2CLX-13. If no packets are shown the sender has not sent any weather packets the latest 1 day(s).
| Time | Temp. | Humidity | Pressure | Rain* | Wind** | Luminosity | Snow |
|---|---|---|---|---|---|---|---|
| 1778070355 | 10° C | 65% | 797.2 hPa | 0 mm | - | - | - |
| 1778067312 | 10.56° C | 64% | 796.6 hPa | 0 mm | - | - | - |
| 1778066094 | 11.11° C | 64% | 796.3 hPa | 0 mm | - | - | - |
| 1778065485 | 11.67° C | 64% | 796.3 hPa | 0 mm | - | - | - |
| 1778063663 | 11.67° C | 64% | 796.1 hPa | 0 mm | - | - | - |
| 1778061838 | 12.78° C | 63% | 795.9 hPa | 0 mm | - | - | - |
| 1778061229 | 13.33° C | 63% | 795.9 hPa | 0 mm | - | - | - |
| 1778060620 | 12.78° C | 62% | 796 hPa | 0 mm | - | - | - |
| 1778059401 | 13.33° C | 61% | 795.8 hPa | 0 mm | - | - | - |
| 1778058184 | 15° C | 59% | 795.7 hPa | 0 mm | - | - | - |
| 1778057577 | 15° C | 57% | 795.6 hPa | 0 mm | - | - | - |
| 1778055748 | 15.56° C | 58% | 795.8 hPa | 0 mm | - | - | - |
| 1778055140 | 14.44° C | 58% | 795.8 hPa | 0 mm | - | - | - |
| 1778053922 | 13.33° C | 58% | 795.8 hPa | 0 mm | - | - | - |
| 1778052693 | 15° C | 60% | 795.8 hPa | 0 mm | - | - | - |
| 1778052079 | 13.89° C | 59% | 795.9 hPa | 0 mm | - | - | - |
| 1778051464 | 15° C | 61% | 795.9 hPa | 0 mm | - | - | - |
| 1778050849 | 14.44° C | 62% | 796 hPa | 0 mm | - | - | - |
| 1778049617 | 15° C | 64% | 796.2 hPa | 0 mm | - | - | - |
| 1778049002 | 15.56° C | 64% | 796.2 hPa | 0 mm | - | - | - |
| 1778047770 | 15.56° C | 65% | 796.3 hPa | 0 mm | - | - | - |
| 1778047155 | 15.56° C | 64% | 796.4 hPa | 0 mm | - | - | - |
| 1778045927 | 15° C | 65% | 796.6 hPa | 0 mm | - | - | - |
| 1778045319 | 14.44° C | 65% | 796.7 hPa | 0 mm | - | - | - |
| 1778044103 | 15° C | 65% | 796.9 hPa | 0 mm | - | - | - |
* Rain latest hour (hover to see other rain measurements)
** Current wind speed in m/s (hover to see current wind gust speed)